[[{"header":{"parameterUnit":"m.s-1","parameterCategory":1,"la1":30.2991,"la2":30.254,"lo1":-89.0895,"lo2":-89.0444,"dy":0.0017,"dx":0.0017,"nx":28,"ny":28,"refTime":"2024-12-08T03:00:00:Z","depth":0,"parameterNumber":2,"parameterNumberName":"U-component_of_WINDS"},"data":[0,0,0,0,0,0,0,0,0,0,0,0,0,0,0,0,0,0,0,0,0,0,0,0,0,0,0,0,0,0,0,0,0,0,0,0,0,0,0,0,0,0,0,0,0,0,0,0,0,0,0,0,0,0,0,0,0,0,-2.0582,-2.0581,0,-2.0508,-2.0508,-2.0507,-2.0454,-2.0453,-2.0453,-2.0452,-2.0377,-2.0375,-2.0374,0,0,0,0,0,0,0,0,0,0,0,0,0,-2.0676,-2.0674,-2.0582,-2.0581,-2.058,-2.0508,-2.0507,-2.0506,-2.0454,-2.0453,-2.0453,-2.0452,-2.0377,-2.0376,-2.0374,0,0,0,0,0,0,0,0,0,0,0,0,0,-2.0622,-2.0674,-2.0582,-2.0545,-2.0541,-2.0509,-2.0507,-2.0506,-2.0454,-2.0453,-2.0453,-2.0452,-2.0378,-2.0376,-2.0373,-2.0372,0,0,-2.0366,-2.0365,0,0,0,0,0,0,0,0,-2.0625,-2.0619,-2.0551,-2.0548,-2.0543,-2.049,-2.0513,-2.0461,-2.0454,-2.0487,-2.0452,-2.0452,-2.0415,-2.0409,-2.0397,-2.0368,-2.0365,-2.0366,-2.0364,-2.0363,-2.0363,0,0,0,0,0,0,0,-2.0629,-2.0621,-2.0553,-2.055,-2.0545,-2.0532,-2.0524,-2.0503,-2.0455,-2.0484,-2.048,-2.0472,-2.0412,-2.04,-2.0395,-2.0364,-2.0366,-2.0364,-2.0362,-2.0361,-2.0329,-2.0329,0,0,0,0,0,0,-2.0638,-2.0625,-2.0555,-2.055,-2.0583,-2.0531,-2.0521,-2.0507,-2.0456,-2.0447,-2.0473,-2.047,-2.0404,-2.0398,-2.0392,-2.0386,-2.0363,-2.0361,-2.036,-2.0328,-2.0329,-2.0329,0,0,0,0,0,0,-2.0641,-2.0633,-2.0558,-2.0587,-2.0576,-2.053,-2.0514,-2.0506,-2.0493,-2.0447,-2.0438,-2.0468,-2.0403,-2.0395,-2.0377,-2.0382,-2.036,-2.0358,-2.0327,-2.0328,-2.0329,-2.0374,0,0,0,0,0,0,-2.0644,-2.0634,-2.0633,-2.0587,-2.0575,-2.0544,-2.0515,-2.0505,-2.0489,-2.0485,-2.044,-2.0432,-2.0402,-2.0381,-2.0375,-2.0379,-2.0356,-2.0327,-2.0328,-2.0329,-2.0371,-2.0376,-2.038,0,0,0,0,0,-2.0647,-2.0648,-2.0633,-2.0625,-2.0572,-2.0545,-2.0538,-2.0503,-2.049,-2.0488,-2.0459,-2.0434,-2.0383,-2.0379,-2.0372,-2.0375,-2.0326,-2.0327,-2.0329,-2.037,-2.0375,-2.038,0,0,0,0,0,0,-2.0696,-2.0642,-2.0624,-2.0611,-2.0583,-2.0536,-2.0533,-2.051,-2.0485,-2.0482,-2.044,-2.043,-2.0416,-2.0394,-2.0391,-2.037,-2.0351,-2.0351,-2.0385,-2.039,-2.0394,-2.0399,-2.0354,0,0,0,0,0,-2.0705,-2.0687,-2.0641,-2.0634,-2.062,-2.0579,-2.0566,-2.0541,-2.0511,-2.0499,-2.0468,-2.0439,-2.0416,-2.0402,-2.0379,-2.0368,-2.0357,-2.0367,-2.0371,-2.0375,-2.0375,-2.0367,-2.037,-2.0334,-2.0334,-2.0334,0,0,-2.0724,-2.0692,-2.0683,-2.0643,-2.0618,-2.06,-2.057,-2.0552,-2.0538,-2.0496,-2.0476,-2.0453,-2.0417,-2.0403,-2.0395,-2.0384,-2.0383,-2.0377,-2.038,-2.0378,-2.0369,-2.0372,-2.0375,-2.0335,-2.0334,-2.0334,0,0,-2.0749,-2.0724,-2.0714,-2.069,-2.0653,-2.0626,-2.0624,-2.0581,-2.0563,-2.0543,-2.051,-2.0494,-2.0456,-2.0432,-2.0415,-2.0431,-2.0406,-2.0424,-2.0445,-2.0438,-2.0441,-2.0443,-2.0448,-2.045,-2.0425,-2.0425,-2.0425,0,-2.0777,-2.0749,-2.0712,-2.0696,-2.0679,-2.064,-2.063,-2.0608,-2.0566,-2.0555,-2.0544,-2.0495,-2.0469,-2.0447,-2.0451,-2.0439,-2.0435,-2.0429,-2.0444,-2.0446,-2.0447,-2.0451,-2.0453,-2.0427,-2.0427,-2.0427,-2.0426,0,-2.0784,-2.0765,-2.0762,-2.0722,-2.0704,-2.0692,-2.0653,-2.0639,-2.0617,-2.0591,-2.057,-2.0537,-2.0506,-2.05,-2.0477,-2.0475,-2.0469,-2.0452,-2.0431,-2.0454,-2.0457,-2.0458,-2.043,-2.043,-2.0429,-2.0428,0,0,-2.0837,-2.0777,-2.0776,-2.0757,-2.0714,-2.0699,-2.0684,-2.0654,-2.0643,-2.0615,-2.0601,-2.057,-2.0553,-2.0534,-2.0509,-2.0503,-2.0516,-2.0485,-2.0484,-2.0491,-2.051,-2.0523,-2.0525,-2.05,-2.05,-2.0501,-2.0513,0,-2.0854,-2.0826,-2.0792,-2.0775,-2.0757,-2.072,-2.0707,-2.0679,-2.0654,-2.0635,-2.0607,-2.0585,-2.0565,-2.0553,-2.0546,-2.0516,-2.0519,-2.0515,-2.0486,-2.0485,-2.0495,-2.0527,-2.0541,-2.0554,-2.0514,-2.0514,-2.0514,0,-2.087,-2.0844,-2.0825,-2.0783,-2.0774,-2.0763,-2.0732,-2.0715,-2.0682,-2.0664,-2.0643,-2.0616,-2.0598,-2.0581,-2.0556,-2.0554,-2.054,-2.0524,-2.0524,-2.0518,-2.05,-2.0522,-2.0557,-2.0559,-2.0516,-2.0516,-2.0515,0,-2.0909,-2.087,-2.0853,-2.0838,-2.0789,-2.0782,-2.0761,-2.0728,-2.0712,-2.0685,-2.0674,-2.0646,-2.063,-2.0608,-2.0574,-2.0565,-2.0552,-2.0533,-2.0536,-2.0537,-2.0534,-2.0534,-2.0566,-2.0528,-2.0528,-2.0528,-2.0528,0,-2.0931,-2.0921,-2.087,-2.0859,-2.0846,-2.0808,-2.0796,-2.0772,-2.0743,-2.0727,-2.0694,-2.0679,-2.0636,-2.0616,-2.0589,-2.0572,-2.0565,-2.055,-2.0543,-2.0552,-2.0554,-2.0542,-2.0539,-2.0528,-2.0528,-2.0528,-2.0528,0,-2.0972,-2.0938,-2.0917,-2.0872,-2.086,-2.0853,-2.0814,-2.0802,-2.0776,-2.0756,-2.0749,-2.0707,-2.0683,-2.0647,-2.0611,-2.0593,-2.0579,-2.0568,-2.059,-2.0585,-2.0591,-2.059,-2.0615,-2.0616,-2.0578,-2.0578,-2.0579,0,-2.0988,-2.0979,-2.0933,-2.092,-2.09,-2.088,-2.0863,-2.0825,-2.0809,-2.0771,-2.0764,-2.0737,-2.0712,-2.0674,-2.0641,-2.0613,-2.06,-2.0611,-2.0596,-2.0606,-2.0599,-2.06,-2.0598,-2.0614,-2.0615,-2.0615,-2.0616,0,-2.1019,-2.1002,-2.0979,-2.0951,-2.0932,-2.0907,-2.0881,-2.0872,-2.0829,-2.0812,-2.0786,-2.0768,-2.0731,-2.0704,-2.0672,-2.065,-2.0625,-2.0621,-2.062,-2.0629,-2.0641,-2.0633,-2.0598,-2.062,-2.062,-2.0619,-2.0619,-2.0619,-2.1047,-2.1037,-2.1003,-2.0978,-2.0955,-2.0931,-2.0918,-2.0889,-2.0867,-2.0835,-2.0814,-2.0789,-2.0756,-2.071,-2.069,-2.0669,-2.0659,-2.0658,-2.0658,-2.0658,-2.066,-2.0646,-2.0663,-2.0663,-2.0663,-2.0663,-2.0663,0,-2.1075,-2.1052,-2.103,-2.0994,-2.0975,-2.0954,-2.0924,-2.0909,-2.0887,-2.0859,-2.0836,-2.0806,-2.0779,-2.0744,-2.0715,-2.0705,-2.0693,-2.0698,-2.0698,-2.0693,-2.0672,-2.0675,-2.0709,-2.0709,-2.0709,-2.0709,-2.0709,-2.0709,-2.1088,-2.1069,-2.1049,-2.1018,-2.0994,-2.0969,-2.0954,-2.0932,-2.0909,-2.0877,-2.0855,-2.0832,-2.08,-2.0768,-2.0743,-2.0733,-2.0723,-2.0732,-2.0719,-2.0699,-2.0695,-2.0691,-2.0693,-2.0731,-2.0731,-2.0742,-2.0742,-2.0742]},{"header":{"parameterUnit":"m.s-1","parameterCategory":1,"la1":30.2991,"la2":30.254,"lo1":-89.0895,"lo2":-89.0444,"dy":0.0017,"dx":0.0017,"nx":28,"ny":28,"refTime":"2024-12-08T03:00:00:Z","depth":0,"parameterNumber":3,"parameterNumberName":"V-component_of_WINDS"},"data":[0,0,0,0,0,0,0,0,0,0,0,0,0,0,0,0,0,0,0,0,0,0,0,0,0,0,0,0,0,0,0,0,0,0,0,0,0,0,0,0,0,0,0,0,0,0,0,0,0,0,0,0,0,0,0,0,0,0,2.825,2.8251,0,2.8296,2.8296,2.8297,2.826,2.8258,2.8257,2.8255,2.8304,2.8307,2.831,0,0,0,0,0,0,0,0,0,0,0,0,0,2.8136,2.8138,2.825,2.8251,2.8251,2.8296,2.8296,2.8297,2.826,2.8258,2.8256,2.8255,2.8303,2.8307,2.831,0,0,0,0,0,0,0,0,0,0,0,0,0,2.8184,2.8139,2.825,2.8238,2.8238,2.8296,2.8296,2.8297,2.8261,2.8258,2.8256,2.8254,2.8302,2.8306,2.831,2.8383,0,0,2.8323,2.8325,0,0,0,0,0,0,0,0,2.8181,2.8188,2.824,2.8239,2.8239,2.827,2.8274,2.8326,2.8261,2.8252,2.8255,2.8253,2.8295,2.8299,2.8313,2.8385,2.8387,2.8323,2.8326,2.8328,2.8329,0,0,0,0,0,0,0,2.8178,2.8186,2.8268,2.824,2.824,2.8232,2.8236,2.8284,2.8286,2.8253,2.825,2.8256,2.8294,2.8309,2.8314,2.8388,2.8323,2.8327,2.8329,2.8331,2.8525,2.8527,0,0,0,0,0,0,2.8175,2.8184,2.8267,2.827,2.8204,2.8236,2.8241,2.8262,2.8285,2.8287,2.8258,2.8254,2.8303,2.8309,2.8316,2.8404,2.8328,2.8331,2.8334,2.8522,2.8525,2.8528,0,0,0,0,0,0,2.8173,2.8183,2.8265,2.8226,2.8236,2.8241,2.8265,2.8264,2.8279,2.8289,2.829,2.8273,2.8302,2.831,2.8367,2.8405,2.8333,2.8337,2.8519,2.8523,2.8527,2.8581,0,0,0,0,0,0,2.817,2.8183,2.8209,2.8227,2.8238,2.8315,2.8267,2.8267,2.8286,2.8282,2.8303,2.8305,2.83,2.8361,2.8371,2.841,2.834,2.8516,2.8521,2.8526,2.8576,2.8586,2.8595,0,0,0,0,0,2.8166,2.8222,2.8211,2.8221,2.8271,2.8317,2.8323,2.8317,2.8289,2.8317,2.8324,2.8304,2.8399,2.8367,2.8378,2.8419,2.8513,2.8519,2.8525,2.8571,2.8584,2.8595,0,0,0,0,0,0,2.8209,2.8224,2.8211,2.8275,2.8295,2.831,2.8345,2.833,2.8359,2.8353,2.8345,2.835,2.8411,2.842,2.8384,2.8492,2.8452,2.8461,2.8483,2.8496,2.8505,2.8502,2.8344,0,0,0,0,0,2.8226,2.8261,2.8272,2.8328,2.8338,2.834,2.836,2.8353,2.8374,2.8382,2.8393,2.8415,2.845,2.8473,2.8505,2.8576,2.8582,2.861,2.862,2.8628,2.8636,2.8677,2.869,2.8548,2.8548,2.8548,0,0,2.8262,2.8274,2.8297,2.8337,2.8351,2.8389,2.8347,2.8389,2.8417,2.8388,2.8444,2.8453,2.8476,2.8542,2.8571,2.8551,2.8676,2.8635,2.8642,2.8645,2.8684,2.8698,2.871,2.8552,2.8551,2.8551,0,0,2.8346,2.8358,2.8406,2.8422,2.8445,2.8446,2.8458,2.8476,2.8481,2.8536,2.8516,2.855,2.861,2.8629,2.8646,2.8739,2.8723,2.875,2.8802,2.8842,2.8853,2.8863,2.8899,2.8912,2.8758,2.8758,2.8758,0,2.8387,2.8442,2.8433,2.8477,2.8496,2.8471,2.8522,2.8538,2.857,2.8585,2.8562,2.8639,2.8653,2.8723,2.8746,2.876,2.8775,2.8748,2.8852,2.8862,2.8871,2.8905,2.8919,2.8761,2.8761,2.8761,2.876,0,2.8494,2.8533,2.8569,2.8601,2.8625,2.8671,2.8671,2.8696,2.8687,2.8692,2.8749,2.8766,2.8802,2.8818,2.881,2.8889,2.8876,2.8853,2.8813,2.8888,2.892,2.8933,2.8766,2.8765,2.8764,2.8763,0,0,2.8606,2.8634,2.8648,2.8663,2.8687,2.8718,2.8764,2.88,2.8823,2.8846,2.8887,2.8939,2.8918,2.8938,2.8932,2.8967,2.9044,2.894,2.8941,2.8961,2.9134,2.9153,2.9168,2.9032,2.9035,2.9037,2.9133,0,2.8694,2.8774,2.8768,2.8844,2.8882,2.886,2.8901,2.8921,2.8926,2.896,2.8966,2.9004,2.8973,2.8985,2.9019,2.9027,2.9079,2.902,2.9072,2.9074,2.9069,2.9184,2.9204,2.9294,2.9145,2.9147,2.9149,0,2.8806,2.8834,2.8914,2.8935,2.895,2.8987,2.9021,2.9052,2.9076,2.9077,2.91,2.9089,2.9138,2.9097,2.9165,2.9126,2.9147,2.9154,2.9158,2.9164,2.9117,2.9196,2.9322,2.9337,2.9168,2.9167,2.9165,0,2.8883,2.8941,2.8997,2.9011,2.9035,2.9062,2.9074,2.9095,2.9118,2.9147,2.9162,2.9197,2.9217,2.9245,2.9244,2.9213,2.9315,2.9272,2.932,2.932,2.9343,2.9342,2.9477,2.9353,2.9353,2.9353,2.9353,0,2.8982,2.9033,2.9032,2.9067,2.9124,2.9117,2.9174,2.9183,2.9203,2.924,2.9223,2.9259,2.9255,2.9291,2.9291,2.935,2.9358,2.9362,2.9362,2.9365,2.9365,2.938,2.9375,2.9357,2.9356,2.9355,2.9354,0,2.9079,2.908,2.914,2.9159,2.9165,2.9207,2.9224,2.9258,2.9262,2.931,2.9321,2.9328,2.9371,2.9373,2.9421,2.9421,2.9493,2.9485,2.9486,2.9485,2.9533,2.9529,2.9684,2.9705,2.9566,2.9567,2.9568,0,2.9143,2.9182,2.9205,2.9229,2.9242,2.928,2.9304,2.9299,2.9324,2.9355,2.9386,2.9427,2.9459,2.9528,2.9539,2.9577,2.9571,2.9622,2.9576,2.9579,2.9575,2.9573,2.9578,2.9632,2.9633,2.9635,2.9636,0,2.9258,2.9257,2.929,2.9325,2.9354,2.9381,2.9406,2.9427,2.9425,2.9455,2.9498,2.9523,2.9574,2.9615,2.9652,2.9666,2.9652,2.965,2.9663,2.9668,2.9668,2.9671,2.9513,2.9647,2.9646,2.9645,2.9644,2.9644,2.9342,2.9376,2.9398,2.9437,2.9456,2.948,2.9514,2.9523,2.9558,2.9599,2.9594,2.9643,2.9668,2.9716,2.9733,2.9772,2.9755,2.9773,2.9779,2.9784,2.979,2.966,2.9779,2.9778,2.9778,2.9778,2.9777,0,2.9458,2.9471,2.9507,2.9543,2.9575,2.9557,2.9585,2.9613,2.9656,2.9679,2.9712,2.9763,2.9804,2.9818,2.9858,2.9887,2.9882,2.9898,2.9897,2.9901,2.9802,2.9788,2.9902,2.9902,2.9902,2.9902,2.9902,2.9902,2.9522,2.958,2.9582,2.965,2.9663,2.9711,2.9729,2.9752,2.9771,2.9829,2.9863,2.9871,2.9892,2.9934,2.9971,2.9975,2.9991,3.0011,3.0012,2.992,2.9907,2.9896,2.9882,3.0014,3.0014,3.0107,3.0108,3.0109]}]]